| time (UTC) | temp F | wind direction | speed knots | gust knots | rain 1hr in | rain 24hr in | rain mn in | humidity % | barometer mb |
| 20260504214730 | 61 | 215 | 0.0 | 5.2 | 0.00 | 0.11 | 0.11 | 91 | 1011.1 |
| 20260504213830 | 62 | 0 | 0.0 | 0.0 | 0.00 | 0.11 | 0.11 | 92 | 1011.0 |
| 20260504212930 | 62 | 0 | 0.0 | 0.0 | 0.00 | 0.11 | 0.11 | 92 | 1011.1 |
| 20260504212030 | 62 | 0 | 0.0 | 0.0 | 0.00 | 0.11 | 0.11 | 92 | 1011.1 |
| 20260504211130 | 62 | 0 | 0.0 | 0.0 | 0.00 | 0.11 | 0.11 | 92 | 1011.2 |
| 20260504210230 | 62 | 0 | 0.0 | 0.0 | 0.00 | 0.11 | 0.11 | 92 | 1011.2 |
| 20260504205330 | 62 | 0 | 0.0 | 0.0 | 0.00 | 0.11 | 0.11 | 91 | 1011.0 |
| 20260504204430 | 62 | 0 | 0.0 | 0.0 | 0.00 | 0.11 | 0.11 | 92 | 1010.8 |
| 20260504203530 | 62 | 0 | 0.0 | 0.0 | 0.00 | 0.11 | 0.11 | 91 | 1010.8 |
| 20260504202630 | 62 | 0 | 0.0 | 0.0 | 0.00 | 0.11 | 0.11 | 91 | 1010.7 |
| 20260504200830 | 62 | 0 | 0.0 | 0.0 | 0.00 | 0.11 | 0.11 | 91 | 1010.5 |
| 20260504195930 | 62 | 0 | 0.0 | 0.0 | 0.00 | 0.11 | 0.11 | 91 | 1010.4 |
| 20260504195030 | 62 | 0 | 0.0 | 0.0 | 0.00 | 0.11 | 0.11 | 90 | 1010.3 |
| 20260504193230 | 62 | 200 | 1.7 | 4.3 | 0.00 | 0.11 | 0.11 | 90 | 1009.9 |
| 20260504192330 | 62 | 200 | 1.7 | 5.2 | 0.00 | 0.11 | 0.11 | 90 | 1009.8 |
| 20260504191430 | 63 | 197 | 0.9 | 5.2 | 0.00 | 0.11 | 0.11 | 90 | 1009.7 |
| 20260504190530 | 63 | 192 | 1.7 | 3.5 | 0.00 | 0.11 | 0.11 | 90 | 1009.6 |
| 20260504185630 | 63 | 189 | 0.9 | 5.2 | 0.00 | 0.11 | 0.11 | 90 | 1009.4 |
| 20260504184730 | 63 | 175 | 1.7 | 5.2 | 0.00 | 0.11 | 0.11 | 89 | 1009.2 |
| 20260504182930 | 64 | 169 | 1.7 | 5.2 | 0.00 | 0.11 | 0.11 | 90 | 1009.0 |
| 20260504182030 | 63 | 169 | 3.5 | 8.7 | 0.00 | 0.11 | 0.11 | 90 | 1009.2 |
| 20260504181130 | 64 | 168 | 4.3 | 8.7 | 0.00 | 0.11 | 0.11 | 90 | 1009.3 |
| 20260504180230 | 64 | 169 | 2.6 | 7.8 | 0.00 | 0.11 | 0.11 | 90 | 1009.3 |
| 20260504175330 | 64 | 173 | 0.9 | 7.0 | 0.00 | 0.11 | 0.11 | 90 | 1009.3 |
| 20260504174430 | 64 | 179 | 0.0 | 2.6 | 0.00 | 0.11 | 0.11 | 91 | 1009.4 |
| 20260504173530 | 64 | 177 | 1.7 | 4.3 | 0.00 | 0.11 | 0.11 | 90 | 1009.4 |
| 20260504171730 | 64 | 189 | 2.6 | 6.1 | 0.01 | 0.11 | 0.11 | 91 | 1009.4 |
| 20260504170830 | 64 | 172 | 2.6 | 7.8 | 0.02 | 0.11 | 0.11 | 91 | 1009.4 |
| 20260504151130 | 67 | 175 | 6.1 | 13.9 | 0.00 | 0.00 | 0.00 | 80 | 1009.8 |
| 20260504150230 | 67 | 195 | 6.1 | 12.2 | 0.00 | 0.00 | 0.00 | 80 | 1010.0 |
| 20260504140829 | 71 | 175 | 5.2 | 13.9 | 0.00 | 0.00 | 0.00 | 74 | 1009.5 |
| 20260504130530 | 70 | 88 | 3.5 | 7.8 | 0.00 | 0.00 | 0.00 | 76 | 1009.7 |
| 20260504120229 | 70 | 83 | 6.1 | 9.6 | 0.00 | 0.00 | 0.00 | 75 | 1010.7 |
| 20260504110344 | 71 | 42 | 9.6 | 15.6 | 0.00 | 0.00 | 0.00 | 76 | 1010.8 |
| 20260504081244 | 68 | 152 | 2.6 | 8.7 | 0.00 | 0.00 | 0.00 | 76 | 1011.0 |
| 20260504080344 | 68 | 173 | 1.7 | 7.0 | 0.00 | 0.00 | 0.00 | 76 | 1011.2 |
| 20260504050344 | 58 | 203 | 2.6 | 6.1 | 0.00 | 0.00 | 0.00 | 89 | 1011.6 |
| 20260504045444 | 57 | 201 | 0.0 | 5.2 | 0.00 | 0.00 | 0.00 | 90 | 1011.6 |
| 20260504044544 | 57 | 0 | 0.0 | 0.0 | 0.00 | 0.00 | 0.00 | 89 | 1011.6 |
| 20260504043644 | 57 | 0 | 0.0 | 0.0 | 0.00 | 0.00 | 0.00 | 89 | 1011.7 |
| 20260504042744 | 57 | 0 | 0.0 | 0.0 | 0.00 | 0.00 | 0.00 | 89 | 1011.7 |
| 20260504040945 | 58 | 0 | 0.0 | 0.0 | 0.00 | 0.00 | 0.00 | 89 | 1011.9 |
| 20260504040044 | 58 | 0 | 0.0 | 0.0 | 0.00 | 0.00 | 0.00 | 89 | 1011.9 |
| 20260504035144 | 58 | 0 | 0.0 | 0.0 | 0.00 | 0.00 | 0.00 | 89 | 1012.0 |
| 20260504034244 | 59 | 0 | 0.0 | 0.0 | 0.00 | 0.00 | 0.00 | 89 | 1012.0 |
| 20260504033344 | 59 | 0 | 0.0 | 0.0 | 0.00 | 0.00 | 0.00 | 89 | 1011.9 |
| 20260504032444 | 59 | 0 | 0.0 | 0.0 | 0.00 | 0.00 | 0.00 | 89 | 1012.1 |
| 20260504031544 | 59 | 0 | 0.0 | 0.0 | 0.00 | 0.00 | 0.00 | 89 | 1012.3 |
| 20260504030644 | 59 | 195 | 1.7 | 3.5 | 0.00 | 0.00 | 0.00 | 89 | 1012.3 |
| 20260504025744 | 58 | 196 | 0.9 | 4.3 | 0.00 | 0.00 | 0.00 | 89 | 1012.3 |
| 20260504024844 | 58 | 198 | 0.0 | 4.3 | 0.00 | 0.00 | 0.00 | 89 | 1012.3 |
| 20260504023944 | 58 | 0 | 0.0 | 0.0 | 0.00 | 0.00 | 0.00 | 89 | 1012.3 |
| 20260504022144 | 58 | 0 | 0.0 | 0.0 | 0.00 | 0.00 | 0.00 | 89 | 1012.4 |
| 20260504021244 | 58 | 0 | 0.0 | 0.0 | 0.00 | 0.00 | 0.00 | 88 | 1012.5 |
| 20260504020344 | 58 | 0 | 0.0 | 0.0 | 0.00 | 0.00 | 0.00 | 88 | 1012.4 |
| 20260504015444 | 58 | 0 | 0.0 | 0.0 | 0.00 | 0.00 | 0.00 | 87 | 1012.6 |
| 20260504014544 | 58 | 0 | 0.0 | 0.0 | 0.00 | 0.00 | 0.00 | 87 | 1012.7 |
| 20260504013644 | 59 | 0 | 0.0 | 0.0 | 0.00 | 0.00 | 0.00 | 87 | 1012.7 |
| 20260504012744 | 59 | 0 | 0.0 | 0.0 | 0.00 | 0.00 | 0.00 | 87 | 1012.6 |
| 20260504011844 | 59 | 0 | 0.0 | 0.0 | 0.00 | 0.00 | 0.00 | 87 | 1012.7 |
| 20260504010944 | 59 | 0 | 0.0 | 0.0 | 0.00 | 0.00 | 0.00 | 87 | 1012.7 |
| 20260504010044 | 59 | 0 | 0.0 | 0.0 | 0.00 | 0.00 | 0.00 | 87 | 1012.8 |
| 20260504005144 | 59 | 0 | 0.0 | 0.0 | 0.00 | 0.00 | 0.00 | 86 | 1012.9 |
| 20260504004244 | 59 | 0 | 0.0 | 0.0 | 0.00 | 0.00 | 0.00 | 86 | 1012.9 |
| 20260504002444 | 59 | 0 | 0.0 | 0.0 | 0.00 | 0.00 | 0.00 | 86 | 1012.9 |
| 20260503235744 | 60 | 0 | 0.0 | 0.0 | 0.00 | 0.00 | 0.00 | 86 | 1013.1 |
| 20260503234844 | 60 | 200 | 0.0 | 3.5 | 0.00 | 0.00 | 0.00 | 86 | 1013.3 |
| 20260503233944 | 60 | 200 | 0.0 | 1.7 | 0.00 | 0.00 | 0.00 | 87 | 1013.3 |
| 20260503233044 | 60 | 199 | 0.9 | 2.6 | 0.00 | 0.00 | 0.00 | 86 | 1013.4 |
| 20260503232144 | 60 | 199 | 0.9 | 2.6 | 0.00 | 0.00 | 0.00 | 86 | 1013.4 |
| 20260503231244 | 60 | 0 | 0.0 | 0.0 | 0.00 | 0.00 | 0.00 | 86 | 1013.6 |
| 20260503230344 | 60 | 0 | 0.0 | 0.0 | 0.00 | 0.00 | 0.00 | 86 | 1013.7 |
| 20260503225444 | 61 | 0 | 0.0 | 0.0 | 0.00 | 0.00 | 0.00 | 86 | 1013.8 |
| 20260503224544 | 61 | 0 | 0.0 | 0.0 | 0.00 | 0.00 | 0.00 | 86 | 1014.1 |
| 20260503223644 | 61 | 0 | 0.0 | 0.0 | 0.00 | 0.00 | 0.00 | 86 | 1014.1 |
| 20260503222744 | 61 | 0 | 0.0 | 0.0 | 0.00 | 0.00 | 0.00 | 86 | 1014.2 |
| 20260503221844 | 61 | 0 | 0.0 | 0.0 | 0.00 | 0.00 | 0.00 | 86 | 1014.4 |
| 20260503220944 | 61 | 0 | 0.0 | 0.0 | 0.00 | 0.00 | 0.00 | 85 | 1014.4 |
| 20260503220044 | 61 | 199 | 0.9 | 2.6 | 0.00 | 0.00 | 0.00 | 85 | 1014.5 |